This is the latest recevied weather packets stored in our database for station/object DC4XK-10. If no packets are shown the sender has not sent any weather packets the latest 10 day(s).
| Time | Temp. | Humidity | Pressure | Rain* | Wind** | Luminosity | Snow |
|---|---|---|---|---|---|---|---|
| 1777870132 | 11.11° C | 95% | 1008.6 hPa | 0 mm | 0.45 m/s, 254° | - | - |
| 1777869531 | 11.67° C | 95% | 1008.5 hPa | 0 mm | 1.79 m/s, 312° | - | - |
| 1777868931 | 11.67° C | 94% | 1008.5 hPa | 0 mm | 1.79 m/s, 271° | - | - |
| 1777868333 | 11.67° C | 93% | 1008.4 hPa | 0 mm | 2.68 m/s, 250° | - | - |
| 1777867731 | 11.67° C | 93% | 1008.2 hPa | 0 mm | 2.24 m/s, 275° | - | - |
| 1777867130 | 12.22° C | 94% | 1008.2 hPa | 0 mm | 1.79 m/s, 227° | - | - |
| 1777866534 | 12.78° C | 94% | 1008 hPa | 0 mm | 2.68 m/s, 262° | - | - |
| 1777865931 | 12.78° C | 94% | 1008 hPa | 0 mm | 2.68 m/s, 179° | - | - |
| 1777865331 | 13.33° C | 94% | 1008 hPa | 0 mm | 2.24 m/s, 196° | - | - |
| 1777864730 | 13.89° C | 94% | 1007.9 hPa | 0 mm | 3.13 m/s, 304° | - | - |
| 1777864131 | 13.89° C | 94% | 1007.8 hPa | 0 mm | 1.34 m/s, 224° | - | - |
| 1777863531 | 13.89° C | 95% | 1007.7 hPa | 0 mm | 1.79 m/s, 188° | - | - |
| 1777862931 | 13.89° C | 95% | 1007.6 hPa | 0 mm | 1.79 m/s, 261° | - | - |
| 1777861731 | 14.44° C | 96% | 1007.5 hPa | 0 mm | 1.79 m/s, 226° | - | - |
| 1777861131 | 14.44° C | 96% | 1007.3 hPa | 0 mm | 0.89 m/s, 220° | - | - |
| 1777860531 | 14.44° C | 97% | 1007.2 hPa | 0 mm | 1.79 m/s, 240° | - | - |
| 1777859931 | 14.44° C | 97% | 1007.3 hPa | 0 mm | 2.24 m/s, 265° | - | - |
| 1777859331 | 14.44° C | 97% | 1007.5 hPa | 0 mm | 0.89 m/s, 286° | - | - |
| 1777858730 | 14.44° C | 98% | 1007.4 hPa | 0 mm | 1.34 m/s, 281° | - | - |
| 1777858132 | 14.44° C | 98% | 1007.8 hPa | 0 mm | 1.79 m/s, 287° | - | - |
| 1777857531 | 14.44° C | 97% | 1007.5 hPa | 0 mm | 1.34 m/s, 301° | - | - |
| 1777856930 | 14.44° C | 98% | 1007.4 hPa | 0 mm | 0.89 m/s, 317° | - | - |
| 1777856333 | 14.44° C | 98% | 1007.4 hPa | 0 mm | 0.45 m/s, 260° | - | - |
| 1777855731 | 14.44° C | 98% | 1007.4 hPa | 0 mm | 0 m/s | - | - |
| 1777855130 | 14.44° C | 98% | 1007.1 hPa | 0 mm | 0.45 m/s, 238° | - | - |
* Rain latest hour (hover to see other rain measurements)
** Current wind speed in m/s (hover to see current wind gust speed)